Lapse_Rate
5.7 6.0 6.4 6.6 6.9 6.9 7.1 7.4 7.6 8.0 8.1 8.2 8.4 8.0 6.9 6.1 6.2 6.4 6.2 6.0 6.2 6.2
5.4 5.3 5.5 5.9 6.4 6.5 7.0 7.7 8.3 8.2 7.9 7.8 8.0 8.2 8.2 7.5 6.6 6.6 6.8 6.8 6.5 6.7
6.3 6.0 6.0 6.0 5.7 5.9 6.3 6.8 7.2 7.5 7.9 8.4 8.5 8.5 8.3 8.3 8.1 7.4 6.8 7.3 7.7 7.8
7.4 7.1 7.0 6.9 6.7 6.7 6.9 7.0 7.4 7.8 8.0 8.2 8.3 8.6 8.8 8.9 8.9 8.7 8.0 7.3 7.4 8.2
7.9 7.7 7.7 7.6 7.4 7.7 7.7 7.7 7.8 8.0 8.4 8.7 9.0 9.1 8.9 8.7 9.2 9.1 8.9 8.4 8.2 8.2
7.6 7.5 7.5 7.9 8.2 8.5 8.4 8.1 8.2 8.7 8.6 8.6 8.9 9.1 9.0 9.1 9.1 9.1 9.1 9.0 8.7 8.1
7.4 7.8 8.1 8.3 8.4 8.6 8.9 8.9 8.9 8.9 8.8 8.9 9.0 9.0 9.0 9.2 9.0 9.0 9.1 9.2 9.1 8.9
7.6 8.1 8.4 8.8 9.0 9.0 8.9 9.0 9.1 9.0 9.1 8.9 9.0 9.2 9.0 8.9 8.6 8.6 8.7 8.9 9.1 9.1
7.8 8.0 8.6 8.9 8.9 9.0 8.9 8.8 8.9 8.6 8.6 8.6 9.2 9.4 9.4 9.2 8.6 8.0 8.2 8.4 8.7 9.0
8.1 8.8 8.9 8.8 8.8 8.6 8.4 8.5 8.3 8.2 8.4 8.4 8.5 9.4 9.4 9.3 8.5 7.6 7.5 7.8 8.5 8.9
8.4 8.5 8.2 8.4 8.0 7.5 7.7 7.8 7.7 7.5 7.3 7.3 7.6 9.2 9.2 9.2 8.3 7.5 7.4 7.8 8.1 8.5
7.8 7.7 7.4 7.3 7.2 7.0 7.3 7.2 7.2 7.6 7.3 7.0 6.6 7.7 9.0 8.7 7.6 7.1 7.4 7.7 7.9 8.2
7.2 7.4 7.0 7.1 7.1 7.2 7.5 7.2 7.4 7.4 7.5 7.5 7.3 7.4 8.8 8.4 7.6 7.2 7.4 7.9 8.1 9.1
7.1 7.1 6.8 6.9 7.1 7.0 7.4 7.6 7.2 7.0 6.8 6.8 7.1 6.7 8.4 8.6 7.6 7.3 7.6 7.9 8.3 9.0
Wind_Speed
11 8 9 10 10 10 10 11 18 18 19 19 19 17 18 9 10 12 11 13 10 9
12 13 12 14 13 10 14 14 19 20 19 21 20 19 16 11 13 13 12 13 12 11
14 14 14 14 16 16 16 19 17 16 17 16 18 18 15 13 14 14 12 11 14 13
14 16 16 16 17 17 19 19 17 17 17 17 17 16 16 16 16 17 16 16 16 16
15 16 17 17 19 21 19 22 18 18 18 18 18 17 18 18 16 17 17 17 16 17
17 17 18 18 19 17 19 20 20 19 20 20 19 18 18 19 19 18 18 18 18 18
18 19 18 19 19 20 19 21 20 20 21 21 20 20 20 19 20 19 19 18 19 18
19 19 19 20 20 20 20 20 21 21 21 21 19 16 19 20 20 20 20 19 19 19
20 20 20 21 20 21 21 21 21 21 21 22 17 33 36 30 19 19 19 19 19 18
21 21 21 21 21 22 22 22 22 22 22 23 23 36 38 38 21 19 18 20 18 17
21 22 23 23 23 23 21 22 20 21 22 22 20 36 38 37 23 20 20 21 20 19
22 24 23 24 24 22 20 20 20 20 22 23 23 36 38 32 19 19 20 19 20 19
23 24 24 23 23 21 20 21 18 21 22 30 25 35 37 30 15 17 14 16 18 32
24 23 22 22 19 19 18 18 20 21 21 22 23 23 35 34 18 13 12 13 13 14
Wind_Direction
309 305 303 302 301 296 293 293 294 290 287 283 284 287 290 288 282 277 273 270 266 270
310 308 303 299 296 293 290 289 288 289 288 282 279 277 276 275 277 277 274 270 268 264
301 299 297 296 292 290 288 287 285 284 282 279 276 275 272 270 268 269 272 269 264 263
296 294 292 288 288 288 288 288 285 283 281 278 276 272 270 265 264 263 266 268 269 267
293 291 289 288 288 288 286 284 282 281 277 273 270 267 265 265 263 261 260 261 264 264
295 293 290 288 287 286 284 283 282 279 277 275 271 268 264 263 262 258 257 255 256 258
297 295 292 290 287 285 283 281 279 274 273 271 271 267 264 261 260 259 256 253 253 254
298 296 294 291 289 286 281 277 275 274 270 268 265 262 260 258 256 256 256 254 252 252
301 301 297 294 292 289 285 281 278 274 270 267 262 261 262 262 255 251 250 250 248 247
303 301 299 296 294 290 287 284 278 274 269 266 262 261 262 261 259 253 246 246 248 247
304 302 300 298 294 290 287 283 279 274 269 265 263 261 261 259 255 250 245 243 244 246
305 303 300 297 294 290 287 284 279 274 271 265 261 259 259 257 251 246 242 239 239 241
303 301 298 294 295 292 288 284 283 279 271 264 262 256 254 250 245 242 237 236 237 242
304 302 301 298 297 295 297 296 289 285 279 271 262 252 251 247 240 233 233 233 235 237